Hourly Data Report for July 02, 2021

POND INLET A
NUNAVUT
Current Station Operator: NAVCAN

72°41'22.000" N
77°58'08.000" W
61.60 m
2403206
71095
YIO

Download Data

Hourly Data (July 2021)
Hourly Data Report for July 2, 2021
TIME
LST
Temp Definition
°C
Dew Point Definition
°C
Rel Hum Definition
%
Precip. Amount Definition
mm

Wind Dir Definition
10's deg

Wind Spd Definition
km/h
Visibility Definition
km
Stn Press Definition
kPa
Hmdx Definition


Wind Chill Definition


Weather Definition


00:00 2.1 -0.8 81 0.0 23 18 16.1 100.03     LegendNANA
01:00 2.3 -0.5 82 0.0 21 13 16.1 100.03     LegendNANA
02:00 2.0 -0.2 86 0.0 22 9 16.1 100.07     LegendNANA
03:00 2.1 0.0 86 0.0 17 15 16.1 100.10     LegendNANA
04:00 2.7 -0.9 77 0.0 23 17 16.1 100.10     LegendNANA
05:00 2.3 -1.4 77 0.0 23 26 16.1 100.12     Rain
06:00 1.9 -0.9 82 0.0 23 22 16.1 100.17     Rain
07:00 2.0 -0.8 82 0.0 24 24 16.1 100.19     LegendNANA
08:00 2.6 -1.4 75 0.0 24 22 16.1 100.22     LegendNANA
09:00 3.5 -1.4 70 0.0 25 21 16.1 100.25     LegendNANA
10:00 3.9 -3.9 57 0.0 24 18 16.1 100.25     LegendNANA
11:00 4.4 -3.7 56 0.0 24 21 16.1 100.25     LegendNANA
12:00 4.9 -3.8 53 0.0 25 22 16.1 100.26     LegendNANA
13:00 4.3 -3.5 57 0.0 25 21 16.1 100.28     LegendNANA
14:00 5.2 -3.1 55 0.0 25 22 16.1 100.27     LegendNANA
15:00 5.0 -2.9 57 0.0 25 18 16.1 100.27     LegendNANA
16:00 4.5 -3.2 57 0.0 24 17 16.1 100.27     LegendNANA
17:00 5.2 -2.6 57 0.0 25 17 16.1 100.24     LegendNANA
18:00 4.5 -2.2 62 0.0 25 17 16.1 100.22     LegendNANA
19:00 3.6 -1.5 69 0.0 25 17 16.1 100.21     LegendNANA
20:00 3.8 -1.0 71 0.0 25 13 16.1 100.19     LegendNANA
21:00 2.8 -1.3 75 0.0 28 8 16.1 100.21     LegendNANA
22:00 2.5 -1.5 75 0.0 24 9 16.1 100.19     LegendNANA
23:00 2.0 -0.9 81 0.0 28 9 16.1 100.19     Rain

Notes on Data Quality.

Legend

  • E = Estimated
  • M = Missing
  • NA = Not Available*
  • [empty] = Indicates an unobserved value
Date modified: